Content
SEND FEEDBACK

Daily
Averages
Monthly
Summary
Brazil

TERESINA, PIAUI


Home > South America > Brazil > Piaui
Elevation: 328 feet     Latitude: 05 03S     Longitude: 042 48W

WEATHER
 
SELECT A DAY
Number of Records: 163,707;   Date Range: 6/30/96 - 7/28/14
 
SHARE

PRINT THIS DATA

[ ← Previous Day ]
WEATHER ALMANAC - JANUARY 31, 2013
[ Next Day → ]
[ °C ]   °F
Weather ElementAverageHighLow
Temperature86.5 °F96.8 °F (4:00 pm)78.8 °F (3:00 am)
Dewpoint73.4 °F77 °F (1:00 am)68 °F (3:00 pm)
Humidity66.7 %94 % (3:00 am)31 % (3:00 pm)
Barometer29.82 in29.92 in (9:00 am)29.74 in (4:00 pm)
Wind Speed2.4 mph6.9 mph (11:00 pm)
Weather ElementAverage
Visibility7.4 mi
Wind DirectionSSE (142.3 °)

Weather ElementTotal
Precipitation---
Cooling Degree Days22.8 (Base 65)
Growing Degree Days37.8 (Base 50)
Averaged from 27 records on January 31, 2013
WEATHER CONDITIONS BREAKOUT
WIND DIRECTION BREAKOUT
WEATHER BY HOUR - JANUARY 31, 2013
[ °C ]   °F
Local TimeTemperatureDewpointHumidityBarometerVisibilityWind DirectionWind SpeedGust SpeedPrecipitationEventsConditions
1:00 AM80.6 °F77.0 °F89 %29.83 in6.2 miNW (320°)3.5 mphPartly Cloudy
2:00 AM80.6 °F77.0 °F89 %29.83 inNW (320°)2.3 mphClear
3:00 AM79.0 °F76.0 °F88 %29.82 in12.0 miWNW (300°)1.2 mph
3:00 AM78.8 °F77.0 °F94 %29.83 inWNW (300°)1.2 mphClear
4:00 AM78.8 °F75.2 °F89 %29.80 inNW (320°)1.2 mphClear
5:00 AM78.8 °F75.2 °F89 %29.80 inNNW (330°)1.2 mphClear
6:00 AM78.8 °F77.0 °F94 %29.83 in6.2 miCalmMostly Cloudy
7:00 AM78.8 °F77.0 °F94 %29.86 in6.2 miCalmScattered Clouds
8:00 AM80.6 °F75.2 °F84 %29.89 in6.2 miNNE (30°)1.2 mphScattered Clouds
9:00 AM86.0 °F74.0 °F61 %29.91 in12.0 miESE (110°)2.3 mphPartly Cloudy
9:00 AM86.0 °F75.2 °F70 %29.92 in6.2 miESE (110°)2.3 mphScattered Clouds
10:00 AM87.8 °F73.4 °F62 %29.89 in6.2 miNE (50°)5.8 mphScattered Clouds
11:00 AM89.6 °F75.2 °F62 %29.86 in6.2 miEast (90°)5.8 mphMostly Cloudy
12:00 PM91.4 °F69.8 °F49 %29.86 in6.2 miEast (80°)5.8 mphScattered Clouds
1:00 PM93.2 °F71.6 °F49 %29.80 in6.2 miEast (100°)3.5 mphScattered Clouds
2:00 PM93.2 °F69.8 °F46 %29.80 in6.2 miEast (100°)2.3 mphScattered Clouds
3:00 PM96.0 °F69.0 °F31 %29.77 in12.0 miNNE (30°)3.5 mphPartly Cloudy
3:00 PM95.0 °F68.0 °F41 %29.77 in6.2 miNNE (30°)3.5 mphScattered Clouds
4:00 PM96.8 °F68.0 °F39 %29.74 in6.2 miEast (90°)2.3 mphScattered Clouds
5:00 PM95.0 °F69.8 °F44 %29.74 in6.2 miWNW (300°)2.3 mphPartly Cloudy
6:00 PM93.2 °F69.8 °F46 %29.74 in6.2 miCalmPartly Cloudy
7:00 PM87.8 °F73.4 °F62 %29.77 inCalmClear
8:00 PM87.8 °F73.4 °F62 %29.77 inNorth (360°)5.8 mphClear
9:00 PM87.0 °F73.0 °F55 %29.78 in12.0 miCalmMostly Cloudy
9:00 PM86.0 °F73.4 °F66 %29.77 inCalmClear
10:00 PM86.0 °F73.4 °F66 %29.80 inCalmClear
11:00 PM82.4 °F75.2 °F79 %29.83 in6.2 miNNW (330°)6.9 mphMostly Cloudy
Hourly data recorded from SBTE, located miles away from Teresina, Piaui







STORIES FROM OUR PARTNERS